Weather History for Ann Arbor, MI

Change the Weather History Date:

Thursday, January 23, 2014

  Actual Average Record
Temperature  
Mean Temperature 2 °F -  
Max Temperature 14 °F 26 °F 48 °F (2012)
Min Temperature -11 °F 8 °F -11 °F (2005)
Degree Days  
Heating Degree Days 62    
Moisture  
Dew Point 0 °F    
Average Humidity 74    
Maximum Humidity 87    
Minimum Humidity 57    
Precipitation  
Precipitation 0.00 in - - ()
Sea Level Pressure  
Sea Level Pressure 30.25 in    
Wind  
Wind Speed 6 mph (WNW)    
Max Wind Speed 13 mph    
Max Gust Speed 21 mph    
Visibility 8 miles    
Events Snow    
Averages and records for this station are not official NWS values.
T = Trace of Precipitation, MM = Missing Value Source: NWS Daily Summary

Daily Weather History Graph

Daily Weather History Graph

Search for Another Location

Airport:

Trip Planner

Search our weather history database for the weather conditions in past years. The results will help you decide how hot, cold, wet, or windy it might be!

Date:

Astronomy

Jan. 23, 2014 Rise Set
Actual Time 7:56 AM EST 5:37 PM EST
Civil Twilight 7:25 AM EST 6:08 PM EST
Nautical Twilight 6:51 AM EST 6:42 PM EST
Astronomical Twilight 6:18 AM EST 7:15 PM EST
Moon 12:16 AM EST (1/23) 11:22 AM EST (1/23)
Length of Visible Light 10h 42m
Length of Day
9h 41m
Waning Gibbous, 55% of the Moon is Illuminated
Jan 23
Waning Gibbous
Jan 24
Last Quarter
Jan 30
New
Feb 6
First Quarter
Feb 14
Full

Hourly Weather History & Observations

Time (EST) Temp. Windchill Dew Point Humidity Pressure Visibility Wind Dir Wind Speed Gust Speed Precip Events Conditions
12:18 AM 6.8 °F -0.1 °F 3.2 °F 85% 29.92 in 4.0 mi SW 3.5 mph - 0.00 in Snow Light Snow
12:53 AM 7.0 °F - 3.9 °F 87% 29.98 in 10.0 mi Calm Calm - 0.00 in   Overcast
1:03 AM 6.8 °F - 3.2 °F 85% 29.93 in 8.0 mi Calm Calm - 0.00 in Snow Light Snow
1:53 AM 8.1 °F -3.2 °F 3.0 °F 80% 30.00 in 10.0 mi WNW 6.9 mph - 0.00 in   Mostly Cloudy
2:53 AM 7.0 °F -5.7 °F 3.0 °F 84% 30.03 in 10.0 mi WNW 8.1 mph - N/A   Mostly Cloudy
3:02 AM 6.8 °F -6.9 °F 1.4 °F 79% 29.97 in 10.0 mi WNW 9.2 mph - N/A   Partly Cloudy
3:53 AM 3.0 °F -9.3 °F -0.9 °F 84% 30.06 in 10.0 mi West 6.9 mph - N/A   Clear
4:37 AM 3.2 °F -10.3 °F -0.4 °F 85% 30.01 in 5.0 mi West 8.1 mph - 0.00 in Snow Light Snow
4:53 AM 5.0 °F -9.1 °F -0.0 °F 80% 30.08 in 3.0 mi WNW 9.2 mph - 0.00 in Snow Light Snow
5:53 AM 5.0 °F -9.1 °F -0.0 °F 80% 30.11 in 3.0 mi WNW 9.2 mph - 0.00 in Snow Light Snow
6:21 AM 5.0 °F -9.1 °F -0.4 °F 78% 30.07 in 5.0 mi WNW 9.2 mph - 0.00 in   Haze
6:53 AM 5.0 °F -6.9 °F -0.0 °F 80% 30.15 in 10.0 mi WNW 6.9 mph - 0.00 in   Mostly Cloudy
7:53 AM 5.0 °F -9.1 °F -0.0 °F 80% 30.19 in 2.5 mi WNW 9.2 mph - 0.00 in Snow Light Snow
8:14 AM 5.0 °F -9.1 °F -0.4 °F 78% 30.14 in 2.5 mi WNW 9.2 mph - 0.00 in Snow Light Snow
8:44 AM 5.0 °F -9.1 °F -0.4 °F 78% 30.16 in 2.5 mi WNW 9.2 mph - 0.00 in Snow Light Snow
8:51 AM 5.0 °F -9.1 °F -0.4 °F 78% 30.17 in 4.0 mi WNW 9.2 mph - 0.00 in Snow Light Snow
8:53 AM 5.0 °F -10.8 °F -0.0 °F 80% 30.23 in 4.0 mi WNW 11.5 mph - 0.00 in Snow Light Snow
9:27 AM 6.8 °F -5.9 °F -0.4 °F 72% 30.19 in 10.0 mi WNW 8.1 mph - 0.00 in   Scattered Clouds
9:53 AM 7.0 °F -5.7 °F 1.0 °F 77% 30.27 in 10.0 mi NW 8.1 mph - 0.00 in   Scattered Clouds
10:53 AM 9.0 °F -5.9 °F 1.9 °F 73% 30.30 in 10.0 mi NNW 11.5 mph - N/A   Partly Cloudy
11:53 AM 12.0 °F -0.4 °F 3.0 °F 67% 30.32 in 10.0 mi NW 9.2 mph - N/A   Scattered Clouds
12:18 PM 12.2 °F -1.8 °F 1.4 °F 62% 30.26 in 10.0 mi NNW 11.5 mph - N/A   Mostly Cloudy
12:53 PM 12.9 °F -0.2 °F 3.0 °F 65% 30.33 in 10.0 mi NW 10.4 mph - N/A   Overcast
1:53 PM 12.9 °F -0.9 °F 3.0 °F 65% 30.35 in 10.0 mi NNW 11.5 mph 20.7 mph N/A   Overcast
2:53 PM 12.9 °F 0.7 °F 3.0 °F 65% 30.38 in 10.0 mi NW 9.2 mph - N/A   Overcast
3:53 PM 14.0 °F 1.2 °F 1.9 °F 59% 30.40 in 10.0 mi NNW 10.4 mph - N/A   Overcast
4:00 PM 14.0 °F -0.2 °F 1.4 °F 57% 30.35 in 10.0 mi North 12.7 mph - N/A   Overcast
4:53 PM 12.9 °F 1.6 °F 1.9 °F 62% 30.43 in 10.0 mi NNW 8.1 mph - 0.00 in   Overcast
5:07 PM 12.2 °F 0.7 °F 1.4 °F 62% 30.38 in 10.0 mi NW 8.1 mph - N/A   Scattered Clouds
5:25 PM 12.2 °F 1.7 °F 1.4 °F 62% 30.39 in 8.0 mi NW 6.9 mph - 0.00 in Snow Light Snow
5:36 PM 12.2 °F 2.9 °F 1.4 °F 62% 30.40 in 9.0 mi NW 5.8 mph - 0.00 in   Scattered Clouds
5:53 PM 10.9 °F 2.9 °F 1.0 °F 64% 30.47 in 10.0 mi NW 4.6 mph - 0.00 in   Partly Cloudy
6:53 PM 8.1 °F -0.5 °F -0.9 °F 67% 30.49 in 10.0 mi WNW 4.6 mph - N/A   Clear
7:53 PM -2.9 °F -11.2 °F -7.1 °F 82% 30.51 in 10.0 mi West 3.5 mph - N/A   Clear
8:53 PM -6.0 °F -14.7 °F -11.0 °F 79% 30.51 in 10.0 mi WSW 3.5 mph - N/A   Clear
9:53 PM -5.1 °F - -9.9 °F 80% 30.50 in 10.0 mi Calm Calm - N/A   Clear
10:53 PM -9.9 °F - -14.1 °F 82% 30.50 in 10.0 mi Calm Calm - N/A   Clear
11:53 PM -11.0 °F - -14.1 °F 86% 30.49 in 10.0 mi Calm Calm - N/A   Clear